Location: B?jaj?g
(11.7167°N, 92.6667°E)
Time: 02:39:21
(UTC+00:00)

Cosmos 158 Rocket - Pass Details

Date: 18 September 2020
Orbit: 699 x 793 km, 74.0° (Epoch: 18 October)

Event Time Altitude Azimuth Distance (km) Brightness Sun altitude
Rises 12:43:02 0° 357° (N) 3,198 7.3 -14.3°
Reaches altitude 10° 12:45:31 10° 3° (N) 2,258 6.5 -14.9°
Maximum altitude 12:50:24 46° 76° (ENE) 976 4.1 -16.1°
Enters shadow 12:54:16 15° 145° (SE) 1,873 5.6 -17.0°
